Home   Weather   Norman O Houston Park   Past weeks
Flag for USA

Past Weather in Norman O Houston Park, California, USA — Yesterday and Last 2 Weeks

Now
65 °F

Sunny.


Feels Like: 65 °F
Forecast: 63 / 55 °F
Wind: 7 mph from West

Location: Los Angeles / USC Campus Downtown

Current Time: Dec 8, 2019 at 3:36:14 pm

Latest Report: Dec 8, 2019 at 2:52 pm


Visibility: 10 mi

Pressure: 29.97 "Hg

Humidity: 70%

Dew Point: 55 °F

Location of Norman O Houston ParkLocation

Past Weather in Norman O Houston Park — Graph

°F

Norman O Houston Park Temperature Yesterday

Maximum temperature yesterday: 67 °F (at 9:52 am)
Minimum temperature yesterday: 62 °F (at 12:52 am)
Average temperature yesterday: 64 °F

High & Low Weather Summary for the Past Weeks

 TemperatureHumidityPressure
High77 °F (Nov 24, 12:52 pm)90% (Dec 4, 10:52 pm)30.19 "Hg (Dec 4, 10:52 pm)
Low43 °F (Nov 29, 5:52 am)18% (Nov 24, 12:52 pm)29.56 "Hg (Nov 28, 12:52 pm)
Average59 °F64%29.96 "Hg
* Reported Nov 23 2:52 pm — Dec 8 2:11 pm, Norman O Houston Park. Weather by CustomWeather, © 2019

Note: Actual official high and low records may vary slightly from our data, if they occured in-between our weather recording intervals... More about our weather records

Norman O Houston Park Weather History for the Previous 24 Hours

Scroll right to see more
 ConditionsComfort  
Time TempWeatherWind HumidityBarometerVisibility
2:11 pm
Sun, Dec 8
65 °FBroken clouds.8 mph70%29.98 "Hg10 mi
1:52 pm65 °FOvercast.8 mph73%29.98 "Hg10 mi
12:52 pm63 °FLight rain. Cloudy.3 mph84%29.99 "Hg5 mi
12:35 pm64 °FLight rain. Mostly cloudy.3 mph81%30.00 "Hg4 mi
11:52 am66 °FCloudy.3 mph68%30.02 "Hg10 mi
10:52 am64 °FLight rain. Mostly cloudy.No wind75%30.05 "Hg8 mi
10:32 am64 °FBroken clouds.No wind75%30.07 "Hg10 mi
9:52 am63 °FOvercast.No wind81%30.07 "Hg10 mi
9:14 am62 °FPartly sunny.No wind83%30.08 "Hg10 mi
8:52 am63 °FBroken clouds.No wind84%30.08 "Hg10 mi
7:52 am62 °FPartly sunny.No wind86%30.06 "Hg7 mi
6:52 am61 °FFog.No wind87%30.05 "Hg5 mi
6:28 am61 °FFog.No wind87%30.06 "Hg5 mi
6:14 am61 °FPassing clouds.No wind87%30.05 "Hg7 mi
5:52 am62 °FFog.No wind86%30.05 "Hg6 mi
5:27 am61 °FOvercast.No wind87%30.05 "Hg7 mi
4:55 am61 °FMostly cloudy.No wind87%30.05 "Hg7 mi
4:28 am61 °FLight rain. Fog.No wind87%30.05 "Hg5 mi
4:05 am61 °FFog.No wind87%30.05 "Hg6 mi
3:32 am62 °FHeavy rain. Overcast.No wind83%30.06 "Hg2 mi
2:52 am62 °FMostly cloudy.No wind83%30.06 "Hg8 mi
2:31 am62 °FRain. Mostly cloudy.No wind83%30.07 "Hg4 mi
2:01 am62 °FMostly cloudy.No wind83%30.07 "Hg8 mi
1:32 am62 °FLight rain. Fog.No wind86%30.07 "Hg3 mi
1:23 am62 °FLight rain. Fog.No wind86%30.08 "Hg2 mi
11:52 pm
Sat, Dec 7
63 °FOvercast.No wind81%30.08 "Hg10 mi
10:59 pm64 °FLow clouds.No wind78%30.09 "Hg10 mi
9:52 pm64 °FMostly cloudy.No wind75%30.09 "Hg10 mi
9:35 pm63 °FPassing clouds.No wind78%30.09 "Hg10 mi
8:52 pm64 °FPartly cloudy.No wind75%30.08 "Hg10 mi
8:15 pm64 °FMostly cloudy.No wind75%30.09 "Hg10 mi
7:52 pm64 °FOvercast.No wind75%30.09 "Hg10 mi
7:24 pm64 °FMostly cloudy.No wind75%30.08 "Hg10 mi
6:52 pm65 °FMostly cloudy.No wind70%30.08 "Hg10 mi
5:52 pm65 °FOvercast.No wind73%30.04 "Hg10 mi
5:16 pm65 °FOvercast.No wind73%30.05 "Hg10 mi
4:52 pm66 °FOvercast.No wind70%30.06 "Hg10 mi
3:52 pm66 °FMostly cloudy.No wind73%30.05 "Hg10 mi
Weather by CustomWeather, © 2019

See weather overview

Advertising